Regional Weather Roundup
Issued by NWS Midland/Odessa, TX

Skip options and go directly to product.
Home | Oldest Version | Previous Version | Current Version | All | Text Only | Save Text | Print | Product List | Glossary On

Skip product version selection by date and time.   
043
ASUS44 KMAF 312310
RWRMAF
MIDLAND AREA WEATHER ROUNDUP
NATIONAL WEATHER SERVICE MIDLAND TX
600 PM CDT MON AUG 31 2015

...IN SOUTHWEST TEXAS AND SOUTHEAST NEW MEXICO...

CITY           SKY/WX    TMP DP  RH WIND       PRES   REMARKS
ALPINE         SUNNY     92  32  12 N13G18    30.11S
ANDREWS        FAIR      91  51  25 SE8       29.98F
ARTESIA        SUNNY     95  50  21 SE15      29.96F
BIG SPRING     SUNNY     90  53  28 SE13      29.98F
CARLSBAD       SUNNY     96  47  18 SE12G21   29.94F
DRYDEN           N/A     96  56  26 VRB7      29.92F
FORT STOCKTON  SUNNY     95  48  20 E13       29.95F
GUAD PASS      CLOUDY    90  47  22 S10G18    30.13F
HOBBS          SUNNY     90  46  22 SE9       30.02F
MARFA          SUNNY     90  37  15 E3        30.10S
MIDLAND AIRPK  SUNNY     94  51  23 S14       29.97F
MIDLAND INTL   SUNNY     93  52  24 S10       29.96F
ODESSA         SUNNY     93  50  23 SE14      29.97F
PECOS          SUNNY     96  42  15 SE3       29.92S
PRESIDIO       NOT AVBL
SEMINOLE       SUNNY     92  46  20 S9        30.00F
SNYDER         SUNNY     92  55  28 S12       29.97S
WINK           SUNNY     95  46  18 E10       29.93F
$$
...OTHER STATIONS IN TEXAS...

CITY           SKY/WX    TMP DP  RH WIND       PRES   REMARKS
ABILENE        SUNNY     93  58  30 S12       29.95F
AMARILLO       SUNNY     88  49  25 S20G25    29.99F
AUSTIN         LGT RAIN  82  74  76 SE15      29.94R
BROWNSVILLE    TSTM      76  73  91 S8G23     29.90F
CORPUS CHRISTI CLOUDY    83  73  72 SE14      29.92F
DALLAS FTW     MOSUNNY   93  60  33 S13       29.93F
DEL RIO        SUNNY     97  58  27 SE13      29.87F
EL PASO        MOSUNNY   96  43  16 S6        29.97F
HOUSTON INT    PTSUNNY   86  72  62 SE14      30.01R
LUBBOCK        MOSUNNY   90  52  27 SE14G24   29.99F
SAN ANGELO     CLOUDY    95  55  26 SE6       29.93F
SAN ANTONIO    MOSUNNY   95  59  30 SE9       29.93F
WACO           SUNNY     93  62  35 S7        29.93F
WICHITA FALLS  NOT AVBL
$$
...OTHER LOCATIONS IN NEW MEXICO...

CITY           SKY/WX    TMP DP  RH WIND       PRES   REMARKS
ALAMAGORDO     MOSUNNY   93  39  15 CALM      30.00S
ALBUQUERQUE    PTSUNNY   87  44  22 SW17G25   30.08S THUNDER
CANNON AFB     SUNNY     94  49  22 S15G28    30.00F
CLOVIS         SUNNY     91  50  24 S16G24    30.02F
HOLLOMAN AFB   MOSUNNY   95  43  16 VRB7      29.97F
ROSWELL        SUNNY     96  47  18 S13G22    29.96F
RUIDOSO        PTSUNNY   77  46  33 MISG      30.24S
SANTA FE       MOSUNNY   88  38  17 W13       30.13F
TRUTH OR CONSE PTSUNNY   88  43  20 VRB7      30.06F
TUCUMCARI      SUNNY     98  47  17 S13       29.94S
$$

USA.gov is the U.S. government's official web portal to all federal, state and local government web resources and services.